Vorticity
nan nan nan nan nan nan nan nan nan nan nan nan nan nan nan nan nan nan nan nan nan nan nan nan nan nan nan nan nan nan nan nan nan nan nan nan nan nan
nan 8 9 7 9 13 11 10 9 8 7 9 13 13 8 8 14 11 10 12 15 7 9 9 9 9 8 8 9 10 10 9 10 10 10 9 9 nan
nan 8 7 11 9 10 12 9 9 9 10 6 4 16 12 7 10 12 11 8 13 16 8 8 9 9 9 9 9 9 10 10 10 10 10 9 9 nan
nan 10 11 11 9 10 13 13 10 9 11 11 8 5 15 17 8 9 8 11 13 19 13 10 10 10 9 9 9 9 9 10 10 10 10 11 11 nan
nan 11 12 11 13 11 9 13 12 11 11 13 10 10 18 14 12 10 10 10 15 19 18 12 11 9 10 10 10 10 9 9 10 10 10 12 13 nan
nan 12 13 12 8 7 11 11 12 14 13 12 8 7 13 13 11 10 8 9 9 9 17 19 18 14 11 10 11 12 12 11 12 13 13 13 13 nan
nan 12 11 7 11 15 10 5 12 16 12 12 11 8 4 10 11 8 9 6 6 9 8 12 16 17 16 15 17 16 13 15 15 16 14 11 11 nan
nan 11 10 14 15 14 22 20 6 6 12 10 11 12 10 8 7 7 6 6 6 8 9 9 10 12 14 17 20 21 20 18 15 13 13 12 11 nan
nan 11 13 12 11 14 11 17 27 19 8 13 12 10 8 7 9 8 7 7 8 8 7 9 9 10 11 15 16 15 15 15 14 13 12 12 12 nan
nan 11 12 10 11 7 10 12 13 24 18 10 10 11 17 11 9 10 8 0 7 12 7 10 9 9 10 13 12 11 10 10 10 9 11 12 11 nan
nan 12 10 9 4 11 17 14 14 12 22 23 11 5 11 21 13 6 13 4 4 10 7 11 11 8 9 10 13 12 9 10 10 7 5 5 4 nan
nan 11 11 6 5 19 20 18 14 11 17 18 14 14 8 18 18 5 7 4 2 10 12 10 12 9 7 9 11 10 12 12 11 9 5 2 -2 nan
nan 12 4 0 14 19 22 18 10 15 22 14 10 10 12 12 15 18 8 4 1 7 13 7 12 7 11 12 9 12 12 9 9 13 11 7 8 nan
nan 9 -3 5 18 21 17 12 30 33 19 14 12 11 9 9 12 11 19 24 14 15 10 1 10 10 6 10 12 10 11 10 11 10 10 11 10 nan
nan 2 7 15 22 17 9 21 34 34 22 14 11 11 12 10 8 8 10 12 14 25 15 8 13 11 6 10 13 13 9 8 11 10 9 8 7 nan
nan 14 13 14 14 15 15 17 17 16 20 20 14 11 14 14 8 6 9 7 5 8 7 19 27 15 4 13 16 11 8 14 10 9 10 9 10 nan
nan 15 11 11 12 12 12 12 12 13 14 17 19 17 13 11 11 10 11 8 9 11 8 9 15 12 18 19 15 14 10 11 12 12 8 8 10 nan
nan 11 10 10 10 10 11 12 10 12 14 15 15 15 16 16 13 11 12 13 13 11 12 10 6 4 4 8 22 14 12 11 12 10 9 8 9 nan
nan 10 10 10 10 11 11 10 10 11 13 15 13 14 14 14 16 13 14 17 13 13 13 11 8 5 4 4 7 16 20 12 9 9 10 11 12 nan
nan 10 10 10 11 10 11 11 11 12 12 12 13 14 15 15 14 13 17 19 15 12 12 12 12 18 13 13 11 18 15 13 10 11 9 8 9 nan
nan 10 11 11 11 11 11 10 11 11 12 12 11 13 15 15 14 14 12 14 16 13 11 12 15 17 14 15 16 13 9 15 18 17 13 10 8 nan
nan 10 11 10 10 11 11 11 11 10 12 12 11 12 13 14 13 13 14 13 12 12 13 13 14 9 14 13 12 11 12 6 7 10 11 21 25 nan
nan nan nan nan nan nan nan nan nan nan nan nan nan nan nan nan nan nan nan nan nan nan nan nan nan nan nan nan nan nan nan nan nan nan nan nan nan nan
CAPE
18 23 20 24 21 25 47 103 95 30 21 445 1002 1232 841 809 969 790 491 0 1 1 0 0 0 0 0 0 0 0 0 0 0 0 0 1 3 6
19 17 26 17 10 24 29 61 139 125 26 187 579 1408 1080 745 777 1012 591 120 1 1 1 1 0 0 0 0 0 0 0 0 0 0 0 0 0 0
9 16 15 19 14 4 16 42 95 142 127 0 163 462 1552 1112 539 392 499 414 13 1 1 1 1 1 0 1 0 0 0 0 0 0 0 0 0 0
13 13 14 15 17 14 19 93 112 104 158 67 1 2 721 1249 468 366 299 181 324 0 1 1 1 1 1 1 1 1 1 0 0 0 0 0 0 0
21 16 13 22 26 23 16 27 96 136 241 165 18 125 173 1424 819 374 165 131 1 1 0 1 1 1 1 1 1 1 1 1 1 1 0 0 0 0
22 26 25 21 26 30 24 13 78 349 332 210 99 35 149 1228 971 582 60 0 0 0 0 0 0 1 1 1 1 1 1 1 1 1 1 1 1 1
13 14 20 15 14 6 24 10 11 176 310 250 148 123 0 12 294 172 18 0 1 1 1 1 2 0 0 1 0 1 1 1 1 1 1 1 0 0
24 21 18 14 15 4 0 0 0 1 470 223 436 248 15 92 326 194 28 0 0 0 0 0 1 2 1 1 1 1 1 1 1 0 0 0 0 0
27 34 15 13 14 26 10 0 1 0 0 234 410 282 185 176 297 291 9 0 1 1 0 0 1 0 2 1 0 0 0 0 0 0 0 0 0 0
30 14 20 20 20 21 23 12 4 6 32 0 3 433 404 396 289 314 90 2 1 0 0 0 1 1 0 1 2 1 1 1 1 2 1 1 1 1
14 14 14 19 17 18 22 21 9 2 1 0 2 27 0 69 335 311 20 0 1 1 5 1 1 1 2 0 1 3 2 2 2 4 4 3 3 2
20 17 13 25 14 16 21 16 8 2 2 1 0 0 0 0 1 348 0 0 0 1 0 1 0 1 2 2 1 0 1 1 3 5 5 4 3 2
41 41 41 16 20 18 12 11 8 7 0 0 4 1 0 0 1 102 60 205 0 1 0 0 0 0 3 6 5 1 0 0 2 2 5 4 4 2
34 45 40 16 13 12 15 13 5 0 3 1 0 0 0 0 1 1 1 179 15 9 0 0 0 0 3 7 4 3 1 1 0 0 0 3 3 2
30 23 15 10 12 15 10 8 4 4 0 0 0 0 0 0 1 0 0 0 0 1 0 0 0 0 2 6 5 2 2 3 1 3 3 3 1 1
14 24 17 15 6 10 18 2 1 4 1 0 0 0 0 0 0 0 0 0 1 2 0 0 0 0 0 0 0 3 2 1 3 2 1 0 1 2
15 15 9 11 12 19 21 1 1 1 1 2 0 0 0 0 0 0 0 0 0 1 0 0 0 0 0 0 0 0 1 3 4 8 1 1 1 2
13 12 7 9 10 13 11 3 2 0 0 1 1 1 0 0 0 0 0 0 0 0 0 6 0 0 0 0 0 1 1 2 2 4 1 0 3 7
15 13 8 9 6 7 8 8 5 2 2 2 2 1 1 0 0 0 0 0 0 0 1 0 0 0 0 0 0 0 0 1 2 1 1 1 3 6
16 16 10 10 8 10 9 8 7 3 2 4 2 1 1 1 0 0 0 0 0 0 0 0 1 0 0 0 0 2 0 0 0 0 1 1 1 1
28 22 16 12 9 8 8 6 5 4 4 6 10 9 6 6 3 0 0 0 0 0 0 2 1 0 0 0 0 0 1 1 0 0 1 2 9 13
33 31 25 17 14 8 7 8 7 5 5 6 9 11 13 11 6 4 2 0 0 0 0 0 0 0 0 0 0 0 1 1 2 1 0 1 12 13
33 32 39 24 19 13 10 7 8 8 5 4 5 7 9 11 12 10 9 5 0 4 3 0 0 1 0 0 0 2 2 2 3 3 5 0 0 0